Regional Weather Roundup
Issued by NWS

Home | Current Version | Previous Version | Graphics & Text | Print | Product List | Glossary On
Versions: 1 2 3 4 5 6 7 8 9 10 11 12 13 14 15 16 17 18 19 20 21 22 23 24 25 26 27 28 29 30 31 32 33 34 35 36 37 38 39 40 41 42 43 44 45 46 47 48 49 50
000
ASUS43 KIND 041909
RWRIN

WEATHER ROUNDUP FOR INDIANA
NATIONAL WEATHER SERVICE INDIANAPOLIS IN
300 PM EDT TUE AUG 04 2015

NOTE: "FAIR" INDICATES FEW OR NO CLOUDS BELOW 12,000 FEET WITH NO
SIGNIFICANT WEATHER AND/OR OBSTRUCTIONS TO VISIBILITY.

* - STATION DOES NOT REPORT WEATHER SUCH AS PRECIPITATION OR FOG.

+ - STATION NOT QUALITY CONTROLLED BY THE NATIONAL WEATHER SERVICE.
    USE DATA WITH CAUTION...ESPECIALLY DEWPOINT AND RELATIVE
    HUMIDITY OBSERVATIONS.

INZ001>003-010>013-019-020-042000-
NORTHWEST INDIANA

CITY           SKY/WX    TMP DP  RH WIND       PRES   REMARKS
GARY /AIRPORT/ PTSUNNY   82  52  34 W9G23     29.98R
KNOX *+        PTSUNNY   79  55  44 W8        29.98R
LA PORTE +     PTSUNNY   81  56  42 NW9       29.99S
MICHIGAN CITY+ PTSUNNY   77  48  36 NW8       29.98S
MONTICELLO +   PTSUNNY   79  58  49 NW10      29.98S
RENSSELAER +   MOSUNNY   79  55  44 W9        29.99S
VALPARAISO     PTSUNNY   80  53  39 W13       29.98S

$$

LMZ046-743>745-042000-
SOUTHERN LAKE MICHIGAN

STATION/POSITION TIME  TEMP    WIND        PRES    WAVE
                       AIR SEA DIR/SP/G            HT
                 (UTC) (F)     (DEG/KT/KT) (MB)    (FT)
BURNS HARBOR     1800   75      20/  3/  4 1015.2F
MICHIGAN CITY    1800   74     230/  3/  3   N/A
5NW MICH CITY    1900   77 75   CALM  /  2   N/A     1

$$

INZ004-005-014>016-021>024-042000-
NORTH CENTRAL INDIANA

CITY           SKY/WX    TMP DP  RH WIND       PRES   REMARKS
ELKHART        SUNNY     79  50  36 NW12      29.98S
GOSHEN         MOSUNNY   78  58  49 W9G18     29.97S
LOGANSPORT +   PTSUNNY   79  50  36 W13       29.99S
PERU/GRISSOM   PTSUNNY   79  59  50 W10       29.98S
ROCHESTER +    PTSUNNY   81  55  41 W8        29.98S
SOUTH BEND     MOSUNNY   79  49  34 NW13      29.99R
WARSAW +       PTSUNNY   79  55  44 W9G17     29.98S

$$

INZ006>009-017-018-025>027-042000-
NORTHEAST INDIANA

CITY           SKY/WX    TMP DP  RH WIND       PRES   REMARKS
ANGOLA *+      MOSUNNY   81  57  44 NW10      29.97F
AUBURN +       MOSUNNY   81  54  39 W6        29.97F
FORT WAYNE     PTSUNNY   79  58  48 W13G21    29.98S
HUNTINGTON +   MOSUNNY   78  57  47 W13       29.98S

$$

INZ028-029-035-036-043>045-051>053-042000-
WEST CENTRAL INDIANA

CITY           SKY/WX    TMP DP  RH WIND       PRES   REMARKS
CRAWFORDSVL +  MOSUNNY   76  53  44 W8        30.01
GREENCASTLE +  PTSUNNY   79  54  41 W3        30.01S
LAFAYETTE      PTSUNNY   79  59  50 W15       29.99S
TERRE HAUTE    CLOUDY    81  58  45 W7        30.01R

$$

INZ030>032-037>040-046>048-054>057-064-065-042000-
CENTRAL INDIANA

CITY           SKY/WX    TMP DP  RH WIND       PRES   REMARKS
FISHERS *+     PTSUNNY   81  61  50 W6        29.99F
FRANKFORT +    MOSUNNY   80  60  51 W8        30.02S
GREENWOOD *+   PTSUNNY   81  50  34 W7        30.00
INDIANAPOLIS   PTSUNNY   81  54  39 VRB7      29.99S
-EAGLE CREEK   MOSUNNY   80  58  46 W7        29.99S
KOKOMO *+      PTSUNNY   79  59  50 NW12      29.99S
MARION +       PTSUNNY   77  58  51 W7G16     30.00S
MT COMFORT *+  PTSUNNY   81  41  24 NW9       30.00S
SHELBYVILLE    PTSUNNY   83  57  41 SW6       29.99S
ZIONSVILLE +   MOSUNNY   80  55  42 NW9       30.01S

$$

INZ033-034-041-042-049-050-058-059-042000-
EAST CENTRAL INDIANA

CITY           SKY/WX    TMP DP  RH WIND       PRES   REMARKS
MUNCIE         MOSUNNY   78  58  49 NW10      29.99S

$$

INZ060-061-067>069-081>083-085>088-042000-
SOUTHWEST INDIANA

CITY           SKY/WX    TMP DP  RH WIND       PRES   REMARKS
EVANSVILLE     MOSUNNY   90  70  51 CALM      29.98S HX  95
HUNTINGBURG *+ SUNNY     86  70  58 CALM      29.99F
WASHINGTON +   PTSUNNY   83  62  48 CALM      29.99S

$$

INZ062-063-066-070>080-084-089>092-042000-
SOUTH CENTRAL AND SOUTHEAST INDIANA

CITY           SKY/WX    TMP DP  RH WIND       PRES   REMARKS
BLOOMINGTON    CLOUDY    81  64  56 NW3       30.01S
MADISON *+     CLOUDY    82  61  47 SW8       30.02F
NORTH VERNON + CLOUDY    82  61  47 W8        30.01R
SEYMOUR +      CLOUDY    84  64  51 CALM      30.00S

$$



USA.gov is the U.S. government's official web portal to all federal, state and local government web resources and services.